Lid_Strength_Index
25 24 24 25 25 31 29 28 31 29 32 23 20 20 20 19 20 20 20 20 19 18 18 16 15 13 12 12 12 13 14 14 14 12 11 11 12 12 12 12 10 10 10 8
29 24 28 29 26 28 28 27 28 25 26 21 20 20 20 20 20 21 21 20 19 18 17 17 14 13 12 12 11 12 13 14 13 12 12 11 12 12 12 12 10 10 9 7
30 25 26 31 30 30 33 36 31 32 26 28 22 21 21 21 20 21 20 20 20 18 17 15 14 12 12 12 11 12 13 13 13 12 12 11 11 12 12 11 10 10 9 7
30 27 30 26 30 30 29 29 32 31 25 25 24 21 20 19 21 20 20 21 19 18 17 14 13 12 12 11 11 11 13 13 12 12 11 11 11 11 12 11 10 9 9 7
32 31 26 26 26 29 31 30 32 29 28 26 24 22 21 22 19 20 20 20 19 18 16 14 13 12 11 10 10 10 12 12 12 11 10 10 11 11 11 11 10 8 8 7
29 32 30 27 24 24 27 32 24 30 29 30 24 26 22 19 20 20 20 20 19 18 16 16 15 11 10 8 8 11 11 11 11 10 9 9 9 10 10 10 9 8 7 6
29 30 27 23 23 24 29 27 26 31 31 31 27 24 21 20 20 20 20 21 19 17 18 16 13 11 10 9 9 10 10 10 9 9 9 7 7 9 9 9 8 7 6 4
29 31 29 23 24 26 25 24 26 29 30 31 25 22 22 21 20 22 22 21 20 19 18 15 13 11 11 10 8 9 9 9 8 8 7 5 7 9 9 8 8 6 6 4
25 24 22 23 23 22 22 25 25 29 26 28 24 23 22 22 21 22 22 21 20 20 19 16 13 11 12 10 6 8 9 8 7 7 5 6 8 9 9 8 7 6 5 6
25 23 24 22 22 22 23 23 23 25 26 24 25 22 22 22 22 21 22 21 21 20 20 17 14 12 11 9 6 8 9 8 7 7 6 6 8 9 9 9 6 7 6 7
26 24 23 23 23 23 22 22 22 22 23 24 24 23 23 22 23 22 20 21 21 21 20 19 14 13 12 10 7 7 7 8 7 7 7 8 8 8 8 8 5 5 6 6
23 22 24 24 23 23 24 24 24 26 25 23 24 24 23 23 22 22 21 21 22 21 20 19 16 14 13 11 10 7 6 7 8 6 7 9 7 7 7 7 6 8 7 7
23 24 23 23 23 23 25 24 24 25 26 27 24 24 23 23 23 19 21 21 22 21 20 19 17 16 15 13 12 10 8 7 7 8 7 7 6 7 9 8 7 7 7 9
23 25 24 24 25 25 24 24 24 26 27 27 27 24 24 24 23 22 21 21 21 21 20 20 19 18 18 16 14 13 10 8 9 9 8 7 6 7 6 8 9 11 9 9
24 25 25 27 26 26 26 27 26 27 28 27 28 28 25 25 24 22 21 20 20 21 19 20 19 19 18 17 18 17 15 13 12 12 11 9 9 10 10 10 10 11 11 10
25 27 28 27 28 28 30 30 28 29 31 32 28 26 25 24 22 22 21 20 21 21 20 20 19 18 19 18 18 18 17 14 12 13 13 13 12 11 11 11 11 11 11 12
25 27 30 29 28 31 30 32 32 33 32 31 29 27 25 23 22 21 21 20 20 21 18 20 19 17 18 18 19 19 18 17 14 14 13 13 13 13 12 12 12 12 13 11
25 27 27 28 29 29 30 32 33 32 32 30 29 26 24 23 23 22 21 20 20 20 18 19 17 16 18 18 19 19 19 18 17 16 15 14 14 14 14 13 13 13 13 12
26 27 31 28 28 31 32 33 33 32 30 30 28 26 25 25 23 22 21 21 21 21 18 18 17 16 18 17 17 19 19 19 19 18 16 14 14 14 14 14 14 14 14 14
29 32 30 32 31 29 31 33 32 29 27 27 26 25 23 23 22 21 21 22 21 20 17 18 17 17 18 18 17 19 19 19 19 19 18 17 16 16 15 15 15 15 15 15
26 28 28 26 26 26 26 26 26 26 26 25 24 24 24 23 22 20 21 21 19 17 17 17 17 16 17 18 19 20 20 19 19 20 19 18 17 17 17 16 16 16 16 16
26 26 25 25 25 25 25 25 25 24 24 24 23 23 22 21 20 20 20 20 18 15 18 19 16 14 16 18 20 20 20 19 19 19 19 19 19 18 18 17 18 17 17 17
24 24 24 24 24 24 26 25 25 25 24 23 23 23 23 21 21 21 21 18 17 15 18 19 15 14 15 20 21 20 20 20 19 19 19 18 18 18 18 18 18 18 17 17
23 23 23 23 23 23 25 25 26 25 25 22 21 21 22 22 20 20 19 17 16 16 18 17 15 14 15 19 20 21 20 20 19 19 19 17 18 18 18 18 18 18 17 17
23 23 23 23 23 24 24 24 25 25 24 23 21 20 19 19 21 19 20 19 17 17 19 17 15 15 18 18 18 20 20 20 19 19 19 19 19 19 18 17 18 18 18 18
24 23 23 23 23 23 23 23 24 24 23 23 22 21 19 19 19 20 21 17 19 17 19 19 17 16 17 18 18 18 19 19 19 19 19 19 19 19 19 18 18 18 17 17
24 21 24 24 23 23 23 23 24 24 22 22 22 20 20 20 20 20 18 20 19 18 19 19 19 17 16 17 18 18 19 19 18 18 19 19 19 19 19 18 18 17 17 16